Regional Weather Roundup
Issued by NWS

Home | Current Version | Previous Version | Graphics & Text | Print | Product List | Glossary On
Versions: 1 2 3 4 5 6 7 8 9 10 11 12 13 14 15 16 17 18 19 20 21 22 23 24 25 26 27 28 29 30 31 32 33 34 35 36 37 38 39 40 41 42 43 44 45 46 47 48 49
000
ASUS43 KDMX 271607
RWRIA

WEATHER ROUNDUP FOR IOWA
NATIONAL WEATHER SERVICE DES MOINES IA
1100 AM CDT THU AUG 27 2015

NOTE: "FAIR" INDICATES FEW OR NO CLOUDS BELOW 12,000 FEET WITH NO
SIGNIFICANT WEATHER AND/OR OBSTRUCTIONS TO VISIBILITY.

* - THESE STATIONS ARE NOT NWS STATIONS...THUS NOT UNDER NWS
QUALITY CONTROL.  THEY ALSO DO NOT REPORT WEATHER SUCH
AS PRECIPITATION OR FOG.

IAZ001>003-012>014-020>022-031>034-043>046-271700-
   NORTHWEST IOWA

CITY           SKY/WX    TMP DP  RH WIND       PRES   REMARKS
CARROLL *      CLOUDY    61  59  94 E14       30.07F
CHEROKEE *     CLOUDY    63  63 100 SE16      29.99R
DENISON *      SUNNY     63  59  88 E8G16     30.08R
LE MARS *      SUNNY     66  63  88 S17G24    30.02R
ORANGE CITY *  LGT RAIN  66  63  88 S13       29.99S
SHELDON *      MOSUNNY   66  63  88 S8        29.99R
SIOUX CITY     CLOUDY    66  60  81 SE16      30.01F
SPENCER        CLOUDY    64  60  87 SE18      29.93F
STORM LAKE *   CLOUDY    61  59  94 SE18G29   30.02F
$$

IAZ055>058-069>071-079>083-090>094-271700-
   SOUTHWEST IOWA

CITY           SKY/WX    TMP DP  RH WIND       PRES   REMARKS
ATLANTIC *     SUNNY     63  57  82 SE6G15    30.08R
AUDUBON *      LGT RAIN  61  57  88 SE8       30.10F
CLARINDA *     CLOUDY    64  59  82 S17G28    30.07F
COUNCIL BLFS * SUNNY     68  61  77 SE13      30.06R
CRESTON *      MOSUNNY   61  57  88 SE10      30.15F
HARLAN  *      MOSUNNY   63  63 100 E5        30.13R
LAMONI         CLOUDY    67  58  72 W3        30.20R
RED OAK *      PTSUNNY   66  61  82 SE7       30.09R
SHENANDOAH *   SUNNY     66  59  77 SE13G21   30.07R
$$

IAZ047>049-059>061-072>074-084-271700-
   CENTRAL IOWA

CITY           SKY/WX    TMP DP  RH WIND       PRES   REMARKS
AMES           CLOUDY    61  59  93 CALM      30.18R
ANKENY *       SUNNY     64  59  82 CALM      30.19R
CHARITON *     SUNNY     70  59  68 SW6       30.19R
DES MOINES     CLOUDY    67  57  70 SW6       30.19R
GRINNELL*      CLOUDY    66  59  77 S7        30.19R
KNOXVILLE *    SUNNY     68  59  73 S6        30.16R
MARSHALLTOWN   CLOUDY    66  59  78 S6        30.17R
PELLA *        CLOUDY    68  63  83 S3        30.19R
PERRY *        LGT RAIN  63  59  88 CALM      30.17S
$$

IAZ004>006-015-016-023>025-035-036-271700-
   NORTH CENTRAL IOWA

CITY           SKY/WX    TMP DP  RH WIND       PRES   REMARKS
ALGONA *       DRIZZLE   59  57  94 S14       30.09F
CLARION *      SUNNY     63  57  82 S10       30.17R
ESTHERVILLE    CLOUDY    61  56  83 SE20G30   29.96F
FORT DODGE *   CLOUDY    61  55  82 CALM      30.16F
MASON CITY     CLOUDY    66  59  78 S8        30.17R
FOREST CITY *  SUNNY     63  55  77 S9        30.13F
IOWA FALLS *     N/A     64  59  82 SW6       30.19R
$$

IAZ007>011-017>019-026>030-037>042-050>054-066-271700-
   NORTHEAST IOWA

CITY           SKY/WX    TMP DP  RH WIND       PRES   REMARKS
CEDAR RAPIDS   CLOUDY    66  60  81 S7        30.18R
CHARLES CITY * PTSUNNY   68  61  77 S8        30.19R
CLINTON *      SUNNY     68  57  68 S8        30.21R
DECORAH *      SUNNY     66  57  72 VRB6G12   30.16R
DUBUQUE        MOSUNNY   66  58  75 S7        30.18S
MONTICELLO *   SUNNY     70  61  73 SE5       30.18R
OELWEIN *      MOSUNNY   68  59  73 S8        30.19R
WATERLOO       CLOUDY    69  58  67 S6        30.16R
$$

IAZ064-065-067-068-078-271700-
   EAST CENTRAL IOWA

CITY           SKY/WX    TMP DP  RH WIND       PRES   REMARKS
DAVENPORT      SUNNY     69  57  65 S7        30.18S
IOWA CITY      CLOUDY    67  59  75 S5        30.19R
MT. PLEASANT * CLOUDY    72  55  56 S6        30.18R
MUSCATINE *    SUNNY     70  57  64 SE8       30.19R
QUAD CITIES    SUNNY     69  57  65 S7        30.18R
$$

IAZ062-063-075>077-085>089-095>099-271700-
   SOUTHEAST IOWA

CITY           SKY/WX    TMP DP  RH WIND       PRES   REMARKS
BURLINGTON     PTSUNNY   68  58  70 SE6       30.18R
FAIRFIELD *    SUNNY     68  57  68 S7        30.17R
FORT MADISON * SUNNY     66  59  77 S8        30.18R
KEOKUK *       SUNNY     70  59  68 VRB6      30.16R
OSKALOOSA *      N/A     70  59  68 S8        30.18R
CENTERVILLE *  SUNNY     70  59  68 S10       30.19R
OTTUMWA        PTSUNNY   69  60  73 S12       30.16R
WASHINGTON *     N/A    N/A N/A N/A MISG        N/A
$$

ABBREVIATIONS USED IN REMARKS
   TC - TEMPERATURES IN CELSIUS
  WCI - WIND CHILL INDEX
   HX - HEAT INDEX
  VSB - VISIBILITY
$$




USA.gov is the U.S. government's official web portal to all federal, state and local government web resources and services.